Date,TemperatureHighF,TemperatureAvgF,TemperatureLowF,DewpointHighF,DewpointAvgF,DewpointLowF,HumidityHigh,HumidityAvg,HumidityLow,PressureMaxIn,PressureMinIn,WindSpeedMaxMPH,WindSpeedAvgMPH,GustSpeedMaxMPH,PrecipitationSumIn
2013-2-1,24,19,12,11,7,1,76,59,46,30.08,29.51,2,0,9,0.00
2013-2-2,21,16,9,12,6,1,79,65,49,30.15,30.00,3,1,14,0.00
2013-2-3,32,19,9,18,9,2,79,66,46,30.00,29.72,4,1,9,0.01
2013-2-4,29,19,10,13,4,-8,84,57,22,29.90,29.70,2,0,14,0.00
2013-2-5,26,14,3,9,-1,-7,64,51,31,30.01,29.86,3,1,10,0.00
2013-2-6,31,22,12,22,9,-8,77,58,35,30.34,29.84,3,1,15,0.00
2013-2-7,20,12,5,0,-6,-11,58,46,31,30.57,30.34,2,0,12,0.00
2013-2-8,26,18,12,23,12,0,88,77,57,30.40,29.88,2,0,9,0.00
2013-2-9,21,12,5,15,2,-4,83,64,45,30.34,29.89,3,1,17,0.00
2013-2-10,25,12,-3,6,0,-10,76,60,34,30.48,30.24,3,1,11,0.01
2013-2-11,38,30,13,35,22,5,92,75,46,30.23,29.57,2,0,9,0.00
2013-2-12,38,35,32,30,27,23,81,72,60,29.81,29.56,2,0,9,0.00
2013-2-13,40,33,28,25,23,20,79,67,49,29.81,29.71,1,0,5,0.00
2013-2-14,37,32,29,26,22,18,84,69,49,29.91,29.70,1,0,5,0.00
2013-2-15,46,36,32,30,25,20,82,65,40,29.92,29.81,3,1,11,0.00
2013-2-16,35,28,20,23,13,2,78,55,36,29.97,29.88,2,0,11,0.00
2013-2-17,19,14,11,5,2,-2,73,58,46,29.87,29.66,3,1,16,0.00
2013-2-18,28,16,7,2,-3,-9,63,44,20,30.13,29.85,5,1,14,0.00
2013-2-19,45,30,15,30,15,-1,90,57,28,30.12,29.56,3,0,10,0.11
2013-2-20,33,28,22,30,23,17,91,82,68,29.74,29.55,0,0,4,0.06
2013-2-21,22,18,10,16,9,2,81,70,57,30.36,29.74,4,1,13,0.00
2013-2-22,36,27,14,24,20,10,85,75,58,30.41,30.19,2,0,9,0.12
2013-2-23,37,34,29,31,28,23,92,82,66,30.19,29.86,2,0,10,0.07
2013-2-24,36,33,31,34,30,28,93,91,86,29.92,29.74,1,0,6,0.07
2013-2-25,38,33,31,31,29,28,91,86,73,30.20,29.92,1,0,4,0.02
2013-2-26,41,35,30,33,29,25,92,80,57,30.29,30.03,4,0,14,0.00
2013-2-27,39,36,34,35,29,23,89,75,60,30.04,29.59,5,2,19,0.14
2013-2-28,46,37,32,34,31,29,91,79,57,29.59,29.51,1,0,6,0.01